Wind_Speed
38 36 39 44 50 53 56 59 60 61 64 69 73 75 76 75 74 73 71 70 72 77 81 88 92 91 88 84 84 84 82 76 70 65 61 56 56 57 56 56 60 61 60
32 37 45 52 53 55 54 51 48 53 57 61 65 71 76 80 80 80 78 75 74 72 77 80 85 92 92 89 87 86 86 82 77 70 66 63 49 54 61 57 54 60 62
35 43 46 49 51 50 46 44 47 53 53 55 58 63 68 76 82 83 84 81 80 77 73 77 79 82 89 93 91 88 86 86 83 76 71 66 67 49 56 57 56 53 56
40 42 45 50 47 44 38 39 45 46 43 45 48 51 58 66 73 79 84 86 84 82 79 74 75 76 76 84 94 92 89 88 86 83 78 74 72 77 53 48 54 58 55
39 44 48 49 46 42 37 38 43 42 38 43 45 44 47 53 63 70 74 80 86 86 83 80 75 74 74 72 85 95 94 91 90 87 82 78 58 76 76 63 58 52 53
42 44 48 49 45 43 36 35 39 43 38 40 41 41 42 40 48 59 69 72 75 82 85 83 79 75 73 73 72 90 95 94 92 92 88 83 82 60 50 74 67 52 54
45 46 49 51 46 43 35 31 37 41 40 41 38 34 37 31 35 43 53 65 69 74 81 84 82 77 74 72 73 78 93 95 94 93 90 88 86 79 73 68 69 66 64
43 47 48 50 47 42 37 27 31 38 40 40 36 33 27 29 25 29 37 49 59 59 74 80 80 78 75 72 72 71 80 91 99 94 92 91 88 82 57 62 66 51 62
44 47 50 49 48 44 38 29 30 31 35 38 37 34 28 20 19 19 26 35 46 49 56 75 76 75 74 73 69 72 71 81 98 96 92 93 90 89 86 57 60 75 66
47 49 50 50 48 45 40 35 28 27 29 32 36 33 31 25 15 12 15 22 32 37 42 63 74 72 70 69 68 70 70 73 89 98 95 95 94 92 86 78 58 64 67
45 47 50 51 49 45 43 36 31 27 28 28 28 30 27 26 22 10 6 10 22 31 34 42 65 71 69 65 66 67 69 69 73 91 99 97 96 95 91 87 70 67 57
44 46 47 49 50 48 44 38 33 30 27 27 26 25 26 22 21 16 4 4 10 18 26 33 47 63 66 64 64 65 67 62 63 72 91 95 93 94 95 94 88 62 79
44 45 45 46 48 48 46 42 35 29 29 25 24 23 21 22 18 17 9 1 9 14 19 25 33 48 59 63 64 65 64 61 57 63 72 91 92 93 95 98 101 100 94
41 43 45 45 45 47 47 45 40 34 27 30 26 22 19 17 17 14 11 4 6 12 18 22 29 37 48 56 59 61 60 61 56 54 62 72 87 90 94 94 94 92 93
41 42 44 47 46 45 47 46 45 40 35 29 29 29 19 15 14 13 11 7 4 11 13 17 23 30 38 46 52 56 59 60 56 54 53 59 71 83 89 92 95 99 89
40 43 44 45 47 46 45 47 46 44 39 35 31 31 29 12 11 10 11 10 4 8 14 16 19 25 32 38 45 50 54 56 55 53 52 54 60 70 78 81 87 92 99
42 43 43 44 44 46 47 46 46 47 44 41 35 30 31 19 8 7 5 5 6 4 7 15 17 22 26 32 38 45 49 52 54 53 52 51 54 60 66 70 74 79 85
43 44 44 43 44 45 45 46 45 43 44 43 41 35 28 28 15 7 5 4 2 0 1 5 13 19 24 28 34 40 45 47 49 50 51 52 52 55 58 62 66 70 75
45 45 45 43 43 44 44 45 45 43 42 42 42 39 34 25 22 18 8 7 5 3 1 5 9 11 17 23 28 35 40 44 47 49 51 52 53 54 57 60 64 67 70
46 46 46 44 43 44 44 43 43 43 43 41 38 38 35 33 24 18 17 13 7 5 5 5 5 7 13 17 20 26 33 39 43 46 49 51 53 55 58 60 62 65 68
48 48 48 47 47 44 43 43 43 43 42 40 38 36 35 33 28 25 18 13 11 9 5 7 9 10 9 10 14 21 25 27 30 36 42 47 51 54 57 60 62 64 67
48 49 49 48 49 47 44 43 42 41 40 40 39 35 34 33 32 28 23 18 12 7 7 6 5 7 15 17 17 17 18 21 26 31 34 38 39 44 51 57 61 63 65
46 48 48 48 49 49 47 45 44 42 41 39 40 38 32 31 31 30 27 20 17 9 7 7 7 6 7 10 21 24 24 23 24 25 27 31 33 38 41 42 45 51 58
44 46 47 48 49 50 51 49 47 45 44 43 40 39 35 28 26 26 26 24 17 15 11 8 6 6 6 8 6 15 23 27 29 30 30 32 35 37 38 42 45 45 48
44 44 45 47 48 49 50 51 51 51 49 46 44 40 37 28 24 23 21 21 20 18 15 12 10 6 5 5 4 3 6 15 23 28 31 33 37 40 42 43 46 47 47
42 44 44 46 49 50 52 51 52 53 52 51 49 44 37 32 20 19 19 19 18 18 17 17 16 12 9 8 5 2 4 8 11 12 17 21 26 32 38 43 46 46 47
Wind_Direction
308 307 307 307 305 304 298 297 291 285 278 271 265 260 254 249 247 245 245 244 241 237 235 235 233 232 232 230 230 229 231 232 232 233 233 235 242 241 240 238 237 237 238
316 314 313 312 309 306 304 298 297 296 287 278 270 262 257 252 246 244 241 241 242 239 236 235 233 231 229 229 229 230 229 229 230 229 228 230 232 237 234 235 236 237 238
320 320 318 318 315 309 303 298 308 309 298 288 279 268 262 254 249 244 241 238 238 238 237 235 234 233 229 226 226 227 228 229 228 228 226 223 224 232 227 228 236 236 237
326 325 325 327 321 313 303 310 317 315 306 304 298 285 269 256 252 247 242 238 235 236 236 235 234 233 232 227 224 224 225 226 227 226 224 224 225 229 228 229 235 232 234
332 335 335 337 332 319 303 312 319 319 311 311 307 295 279 262 251 246 244 239 235 233 233 233 232 232 231 229 225 223 223 224 224 224 223 221 222 228 232 232 233 233 237
341 339 342 344 339 329 305 308 318 323 317 320 315 303 291 274 255 246 240 238 236 233 231 231 231 229 230 229 226 223 223 223 221 223 222 220 221 213 220 227 230 233 232
349 347 349 350 344 335 316 304 314 323 325 328 330 321 302 283 266 251 241 238 234 232 228 228 228 229 228 227 226 224 222 225 222 222 220 220 221 216 225 224 228 227 232
355 356 353 354 352 343 334 307 316 320 328 332 335 341 325 303 278 260 245 237 232 232 228 225 225 226 227 226 225 224 223 224 223 220 220 220 222 219 213 223 217 219 231
4 5 3 1 359 350 345 319 316 325 328 335 340 346 350 326 301 274 253 238 228 227 226 223 223 222 224 224 223 222 222 223 224 220 221 220 219 219 216 218 225 231 234
10 11 9 7 4 358 350 344 321 322 328 335 344 347 351 353 335 307 263 238 224 226 228 221 220 221 221 222 222 222 220 224 226 221 219 220 219 220 219 214 226 218 222
5 8 12 10 8 3 0 356 350 331 330 334 343 350 349 353 357 347 299 245 228 224 227 225 216 218 219 219 219 221 220 224 225 226 221 220 219 219 217 210 216 219 199
3 6 10 12 11 10 7 3 2 357 341 335 339 346 355 349 352 360 7 227 219 222 225 227 220 216 215 216 217 218 220 223 225 227 227 222 223 221 218 213 214 212 224
8 7 9 11 14 14 12 11 7 2 4 350 340 341 350 356 350 355 2 213 214 218 219 218 213 215 212 212 213 216 217 219 223 226 228 227 225 225 224 222 223 227 229
11 12 13 13 14 16 16 15 13 10 7 11 0 346 343 357 3 350 358 347 200 215 214 209 205 206 211 212 213 215 217 218 219 226 227 227 228 227 226 226 225 224 226
13 14 15 16 15 16 18 19 18 14 12 9 10 8 349 346 4 14 357 355 223 203 216 207 204 202 209 213 216 216 215 218 219 223 227 228 227 229 228 227 227 225 221
20 19 18 18 17 16 17 19 20 21 19 16 11 10 10 352 352 6 29 26 0 207 202 205 200 201 206 212 217 220 218 218 219 224 228 229 227 227 228 227 228 229 231
28 27 24 21 19 18 19 18 18 18 20 21 20 17 16 14 348 356 359 23 35 38 195 200 199 203 207 212 216 220 220 221 222 223 228 230 228 228 229 227 226 228 232
29 27 27 23 22 22 19 18 19 17 17 19 21 22 22 24 14 339 0 20 18 339 278 190 200 206 210 214 216 218 221 223 224 225 227 230 230 228 229 231 232 231 230
30 28 26 23 24 22 21 18 17 17 18 17 18 20 21 22 23 21 345 318 310 309 264 244 225 209 210 214 218 221 223 223 225 227 228 230 231 231 231 232 233 234 236
27 27 25 24 23 23 23 21 17 13 15 17 15 17 19 17 19 18 16 15 346 289 258 242 243 238 227 223 219 220 224 227 227 228 230 232 233 234 234 234 234 235 236
21 22 23 22 21 21 21 20 17 13 10 10 11 13 14 17 15 17 14 5 8 23 4 270 253 246 240 232 226 229 231 231 230 233 235 237 236 237 238 239 239 239 238
16 16 18 20 20 18 17 14 13 12 6 3 4 10 10 11 11 16 13 12 3 1 12 16 7 283 252 243 239 236 233 235 239 243 244 241 240 241 244 245 245 244 245
12 12 14 15 16 16 15 12 10 6 0 357 355 360 7 6 7 9 14 13 17 360 348 345 343 336 338 270 245 241 240 240 243 243 245 246 245 249 251 251 253 254 254
10 10 10 11 12 12 11 11 9 4 360 355 353 351 358 2 3 6 7 13 20 23 13 347 324 319 322 343 290 249 244 246 250 253 254 255 255 256 256 256 259 260 263
6 8 9 9 8 9 8 8 7 4 2 355 351 352 348 358 358 360 5 9 17 28 30 27 23 6 345 340 2 354 264 258 259 261 263 262 262 263 261 260 262 263 264
5 6 7 7 6 8 7 6 4 2 360 354 350 348 350 345 356 352 359 5 9 20 35 37 36 34 36 44 41 355 293 285 285 284 276 274 270 268 269 270 268 265 266
Height
5698 5693 5688 5682 5674 5665 5657 5650 5642 5637 5632 5630 5629 5630 5633 5639 5643 5648 5653 5657 5663 5671 5677 5686 5697 5709 5720 5733 5742 5752 5760 5769 5779 5788 5796 5803 5808 5813 5817 5823 5829 5834 5840
5692 5687 5679 5670 5660 5650 5641 5633 5626 5619 5613 5607 5605 5604 5605 5610 5617 5623 5631 5638 5644 5651 5660 5666 5675 5686 5699 5712 5724 5734 5744 5754 5763 5773 5782 5791 5796 5798 5803 5811 5817 5822 5829
5685 5677 5669 5658 5647 5637 5628 5620 5612 5603 5594 5587 5583 5580 5580 5582 5588 5595 5605 5616 5622 5631 5640 5649 5658 5666 5677 5692 5704 5716 5727 5738 5748 5758 5768 5776 5784 5788 5791 5799 5806 5811 5817
5677 5667 5658 5647 5635 5624 5616 5609 5601 5591 5582 5574 5566 5558 5555 5558 5562 5568 5577 5589 5601 5609 5619 5629 5639 5649 5658 5671 5683 5697 5707 5718 5731 5740 5751 5761 5768 5775 5781 5789 5794 5800 5806
5668 5658 5647 5635 5623 5613 5606 5599 5591 5582 5574 5564 5552 5541 5535 5534 5537 5543 5552 5561 5574 5585 5597 5609 5621 5631 5640 5651 5663 5675 5687 5701 5709 5721 5734 5745 5755 5762 5770 5777 5782 5789 5795
5661 5650 5639 5626 5613 5602 5595 5590 5582 5573 5564 5554 5541 5528 5519 5517 5516 5520 5528 5538 5549 5562 5576 5588 5601 5614 5622 5634 5645 5656 5669 5678 5688 5702 5716 5727 5739 5750 5755 5762 5770 5777 5784
5655 5644 5632 5619 5607 5596 5586 5581 5574 5565 5554 5544 5533 5519 5506 5504 5501 5503 5509 5518 5529 5540 5554 5568 5583 5595 5605 5616 5628 5637 5652 5658 5672 5683 5697 5711 5722 5734 5740 5748 5758 5765 5771
5650 5639 5626 5613 5601 5589 5578 5571 5566 5556 5546 5535 5526 5514 5504 5494 5492 5493 5496 5501 5511 5522 5535 5549 5563 5577 5588 5600 5610 5625 5633 5640 5648 5666 5682 5694 5706 5721 5730 5735 5746 5752 5759
5646 5634 5621 5609 5596 5583 5572 5564 5557 5550 5540 5530 5518 5509 5500 5492 5487 5486 5486 5490 5497 5508 5518 5533 5546 5559 5570 5582 5596 5606 5615 5622 5629 5651 5663 5675 5690 5703 5713 5725 5733 5740 5748
5642 5631 5618 5606 5593 5580 5567 5557 5549 5543 5535 5526 5515 5505 5497 5491 5485 5483 5482 5484 5490 5499 5507 5516 5532 5544 5555 5569 5580 5589 5600 5603 5614 5631 5644 5657 5671 5683 5698 5715 5719 5725 5734
5640 5629 5617 5604 5591 5578 5565 5554 5544 5536 5529 5522 5514 5505 5497 5492 5487 5482 5480 5482 5486 5492 5499 5506 5517 5529 5543 5556 5565 5576 5585 5593 5605 5615 5627 5638 5652 5668 5682 5697 5702 5712 5713
5639 5628 5617 5605 5592 5578 5564 5552 5542 5533 5526 5519 5512 5505 5497 5492 5488 5484 5481 5482 5484 5489 5494 5500 5508 5518 5531 5544 5552 5563 5574 5585 5595 5603 5616 5630 5640 5653 5668 5680 5688 5690 5696
5639 5628 5618 5606 5592 5579 5565 5552 5542 5534 5525 5517 5511 5504 5498 5492 5488 5485 5483 5482 5484 5487 5491 5496 5502 5510 5521 5531 5540 5551 5563 5574 5584 5590 5599 5615 5626 5637 5649 5661 5672 5678 5683
5641 5630 5618 5606 5593 5580 5568 5555 5544 5534 5525 5517 5510 5504 5498 5494 5489 5486 5484 5484 5485 5487 5491 5494 5499 5506 5516 5525 5535 5544 5554 5563 5571 5581 5588 5598 5610 5618 5630 5643 5655 5663 5671
5640 5629 5619 5607 5595 5583 5572 5560 5548 5537 5528 5519 5511 5504 5498 5494 5491 5487 5485 5485 5486 5487 5490 5493 5497 5502 5510 5520 5528 5535 5543 5552 5563 5570 5577 5584 5592 5602 5614 5624 5636 5645 5651
5641 5630 5620 5609 5597 5586 5574 5563 5552 5541 5531 5522 5514 5506 5499 5494 5492 5489 5487 5486 5486 5487 5489 5492 5495 5500 5506 5513 5521 5528 5536 5545 5553 5560 5567 5574 5580 5588 5597 5608 5618 5627 5634
5641 5631 5621 5610 5598 5588 5577 5566 5556 5546 5536 5526 5517 5509 5502 5496 5493 5490 5488 5487 5487 5487 5488 5490 5493 5497 5502 5508 5515 5522 5530 5537 5544 5551 5557 5563 5569 5577 5584 5592 5602 5609 5616
5642 5632 5622 5612 5601 5590 5579 5570 5560 5549 5540 5531 5521 5513 5506 5500 5495 5492 5490 5488 5487 5487 5488 5489 5491 5494 5498 5503 5509 5515 5522 5529 5536 5542 5548 5553 5560 5567 5574 5581 5588 5594 5599
5644 5635 5624 5612 5603 5593 5584 5574 5563 5554 5544 5535 5526 5518 5510 5504 5499 5495 5491 5490 5488 5488 5487 5488 5490 5492 5495 5498 5502 5508 5514 5520 5526 5532 5538 5544 5550 5556 5562 5568 5573 5579 5585
5647 5637 5627 5616 5606 5597 5587 5576 5566 5556 5547 5539 5530 5522 5515 5508 5502 5497 5493 5490 5488 5487 5487 5487 5488 5489 5492 5495 5498 5502 5507 5512 5517 5522 5528 5533 5538 5543 5549 5555 5561 5564 5569
5649 5639 5630 5620 5610 5600 5591 5580 5569 5559 5550 5541 5533 5526 5519 5512 5506 5499 5494 5491 5488 5486 5485 5485 5486 5487 5488 5490 5493 5496 5501 5505 5510 5515 5519 5523 5528 5531 5535 5539 5543 5548 5553
5651 5642 5632 5622 5613 5603 5593 5582 5572 5562 5552 5543 5535 5529 5521 5515 5509 5503 5497 5491 5488 5486 5485 5484 5484 5483 5484 5486 5487 5490 5493 5497 5502 5505 5508 5513 5516 5519 5522 5525 5528 5531 5535
5653 5643 5634 5624 5614 5605 5595 5584 5575 5564 5554 5545 5537 5529 5524 5518 5511 5505 5499 5494 5489 5487 5485 5483 5482 5482 5481 5481 5482 5484 5487 5490 5493 5497 5499 5501 5504 5505 5509 5512 5514 5516 5518
5654 5645 5636 5626 5616 5606 5596 5586 5576 5566 5556 5547 5538 5530 5524 5518 5513 5507 5501 5496 5492 5488 5485 5483 5481 5479 5478 5478 5477 5479 5481 5484 5486 5489 5491 5492 5493 5495 5497 5498 5499 5499 5500
5655 5647 5637 5628 5618 5608 5597 5587 5576 5566 5556 5547 5538 5530 5523 5517 5512 5507 5503 5498 5494 5489 5486 5484 5481 5479 5477 5476 5476 5476 5477 5479 5480 5482 5483 5483 5483 5483 5484 5483 5483 5482 5481
5656 5648 5639 5630 5620 5610 5600 5589 5577 5566 5556 5544 5535 5527 5521 5514 5509 5505 5501 5498 5495 5491 5487 5485 5482 5480 5478 5476 5475 5475 5475 5476 5476 5477 5476 5476 5474 5474 5472 5468 5467 5468 5466